STARLINK-30509, 57977

Orbit data source: Space-Track

STARLINK-30509, 57977 is a payload satellite owned by SpaceX/Seattle (US) in LEO that was launched on Sat, 30 Sep 2023 UTC via an FALCON 9 launch vehicle from the Air Force Eastern Test Range (AFETR). Payload-class satellites include a variety of spacecraft equipped with specific instruments for various scientific and technological missions. These include communications satellites like Starlink; space stations such as the ISS; scientific satellites like the Hubble; Earth observation satellites from companies like Planet Labs, Umbra, and HawkEye 360; GPS; miniature CubeSats for education and research; and military/defense satellites.

Loading next visibility...
Identifier
57977, 2023-151P
Orbit
LEO
Country
Flag of USUS
Related business
Manufacturer
SpaceX/Seattle
Mission
Operational Commercial Communications
Bus & Motor
STARLINK V2M, Unknown motor
Mass
730 kg wet, ~700 kg dry
Launch date (UTC)
2023-09-30 (3 years ago)
Launch vehicle
FALCON 9
Launch site
Air Force Eastern Test Range (AFETR)
Object type
Payload
Rocket body
Debris
Shape & HBR
Box + 2 Pan, 17.7 m
Radar Cross Section
33.884 m², Large (>1 m²)

Expand to show TLE details & history
Last TLE update: 1 day ago

TLE from 1 day ago
0 STARLINK-30509
1 57977U 23151P   26174.87781010 -.00000601  00000-0 -12304-4 0  9992
2 57977  43.0052 110.9785 0001706 257.4972 102.5689 15.27588585151835
Epoch: 2026-06-23T21:04Z
TLE epoch observation values (Epoch: 2026-06-23T21:04:02.792Z)
Latitude
-0.00002°
Longitude
-117.07622°
Altitude
483.054 km
Speed
7.626 km/s
True Right ascension
07h 23m 54s
True Declination
0° 00' 00"
Sunlit
Object was in daylight at epoch
Visualization orbit readout
Latitude
Unknown
Longitude
Unknown
Altitude
Unknown
Speed
Unknown
Apparent Right ascension
Unknown
Apparent Declination
Unknown
Sunlit
N/A
Visualization observer readout
Local Sidereal Time
15:08:13
Azimuth
Unknown
Elevation
Unknown
Doppler factor
Unknown
Orbital elements
Apogee altitude
486.139 km
Perigee altitude
483.797 km
Semi-major axis
6,863.105 km
Eccentricity
0.00017
Inclination
43.0052°
RAAN
110.9785°
Arg. of periapsis
257.4972°
True anomaly
102.58798°
Mean anomaly
102.5689°
Eccentric anomaly
102.57844°
Mean motion
3.81735 °/min
Orbital period
94.31 mins
BSTAR
-0.000012304
Loading maneuver chart data...
Computing Atmospheric mass density...
Loading historical data...
Loading historical data...
Loading historical data...
Loading historical data...
Loading historical data...
Loading historical data...
Loading historical data...

Documentation

Showing up to 5 results
|